Regional Weather Roundup
Issued by NWS

Home | Current Version | Previous Version | Graphics & Text | Print | Product List | Glossary Off
Versions: 1 2 3 4 5 6 7 8 9 10 11 12 13 14 15 16 17 18 19 20 21 22 23 24 25 26 27 28 29 30 31 32 33 34 35 36 37 38 39 40 41 42 43 44 45 46 47 48 49 50

000
ASUS43 KMKX 201710
RWRWI

WISCONSIN REGIONAL WEATHER ROUNDUP
NATIONAL WEATHER SERVICE MILWAUKEE/SULLIVAN WI
1100 AM CST SAT JAN 20 2018

NOTE: "FAIR" INDICATES FEW OR NO CLOUDS BELOW 12,000 FEET WITH NO
SIGNIFICANT WEATHER AND/OR OBSTRUCTIONS TO VISIBILITY.

WIZ001-002-006>008-014>016-023>028-201800-
NORTHWEST WISCONSIN

CITY           SKY/WX    TMP DP  RH WIND       PRES   REMARKS
SUPERIOR ARPT  FAIR      33  29  84 SW7       29.85R WCI  27
ASHLAND        PTSUNNY   34  29  82 SW6       29.86R WCI  29
HAYWARD        FAIR      31  28  89 CALM      29.85S
SIREN          PTSUNNY   31  31  99 CALM      29.87R
CUMBERLAND     PTSUNNY   28  28 100 S6        29.86S WCI  22
RICE LAKE      FAIR      29  29 100 S3        29.89R
CHETEK         CLOUDY    28  28  99 CALM      29.89S
LADYSMITH      CLOUDY    28  27  97 CALM      29.89R FOG
EAU CLAIRE     CLOUDY    31  30  96 S3        29.90R
MENOMONIE      PTSUNNY   33  30  89 CALM      29.91R
NEW RICHMOND   CLOUDY    32  32  99 S5        29.88S WCI  28
OSCEOLA        CLOUDY    32  32 100 CALM      29.92R
$$

WIZ003>005-009-010-017-018-201800-
NORTH CENTRAL WISCONSIN

CITY           SKY/WX    TMP DP  RH WIND       PRES   REMARKS
MANITOWISH WTR PTSUNNY   29  29 100 W5        29.84S WCI  24
ARBOR VITAE    CLOUDY    33  32  96 W3        29.84S
WOODRUFF       CLOUDY    33  32  96 W3        29.84S
RHINELANDER    CLOUDY    33  29  85 W5        29.85R WCI  29
EAGLE RIVER    FAIR      32  30  93 NW5       29.84R WCI  27
LAND O LAKES   CLOUDY    35  31  85 NW5       29.85R WCI  31
PHILLIPS       CLOUDY    27  27 100 CALM      29.87R
TOMAHAWK       CLOUDY    30  28  95 CALM      29.86S
MEDFORD        PTSUNNY   30  29  98 SW3       29.88R
MERRILL        CLOUDY    29  29 100 CALM      29.88R
$$

WIZ029-030-035-036-043>047-201800-
CENTRAL WISCONSIN

CITY           SKY/WX    TMP DP  RH WIND       PRES   REMARKS
WAUSAU         FAIR      35  29  78 CALM      29.88R
MOSINEE        PTSUNNY   34  30  86 W5        29.90R WCI  30
MARSHFIELD     PTSUNNY   35  30  82 CALM      29.88R
STEVENS POINT  FAIR      34  29  83 SW3       29.91R
WAUPACA        FAIR      39  31  71 CALM      29.90R
WAUTOMA        FAIR      38  35  89 W5        29.91R WCI  34
WISC RAPIDS    FAIR      31  27  85 SW6       29.91R WCI  25
CAMP DOUGLAS   PTSUNNY   36  32  87 CALM      29.90R
$$

WIZ011>013-019>022-031-037>040-048>050-201800-
NORTHEAST WISCONSIN

CITY           SKY/WX    TMP DP  RH WIND       PRES   REMARKS
ANTIGO         FAIR      30  28  92 CALM      29.87R
SHAWANO        FAIR      40  30  68 W3        29.88S
OCONTO         FAIR      38  29  72 W5        29.88F WCI  34
STURGEON BAY   FAIR      37  29  72 NW6       29.89R WCI  32
GREEN BAY      FAIR      37  29  72 CALM      29.88S
MANITOWOC      FAIR      38  30  73 W9        29.89S WCI  31
APPLETON       PTSUNNY   36  27  69 W5        29.87R WCI  32
CLINTONVILLE   FAIR      37  30  75 CALM      29.88S
OSHKOSH        FAIR      38  31  76 CALM      29.89S
$$

WIZ032>034-041-042-053>061-201800-
SOUTHWEST WISCONSIN

CITY           SKY/WX    TMP DP  RH WIND       PRES   REMARKS
LA CROSSE      FAIR      32  30  92 CALM      29.91S
SPARTA         FAIR      32  29  89 CALM      29.91F
VIROQUA        FAIR      34  33  96 CALM      29.89S
BOSCOBEL       FAIR      39  31  72 CALM      29.91S
PRAIRIE DU CHI FAIR      38  29  72 CALM      29.91S
PLATTEVILLE    FAIR      40  33  76 CALM      29.90S
$$

WIZ056-057-062-063-064-067-068-201800-
SOUTH CENTRAL WISCONSIN

CITY           SKY/WX    TMP DP  RH WIND       PRES   REMARKS
REEDSBURG      FAIR      37  30  78 CALM      29.90R
BARABOO/DELLS  FAIR      40  30  69 CALM      29.89S
LONE ROCK      FAIR      38  31  76 CALM      29.92R
MINERAL POINT  FAIR      43  34  70 CALM      29.90R
MADISON        PTSUNNY   40  31  70 CALM      29.90S
MIDDLETON      FAIR      44  32  63 CALM      29.90S
WATERTOWN      FAIR      40  32  71 CALM      29.90R
MONROE         FAIR      39  30  70 CALM      29.90S
JANESVILLE     MOSUNNY   39  30  70 CALM      29.91R
$$

WIZ051-052-058>065-066-070>072-201800-
SOUTHEAST WISCONSIN

CITY           SKY/WX    TMP DP  RH WIND       PRES   REMARKS
MILWAUKEE      PTSUNNY   45  31  58 SW5       29.90R
WAUKESHA       SUNNY     41  30  65 W8        29.91R
MILWAUKEE/TIMM SUNNY     43  27  52 W6        29.91R
RACINE         FAIR      42  31  64 SW7       29.93R
BURLINGTON     FAIR      41  30  65 SW7       29.92R
KENOSHA        FAIR      42  30  62 W10       29.91R
FOND DU LAC    FAIR      39  29  67 SW3       29.89R
SHEBOYGAN      FAIR      42  32  67 NW6       29.88S
WEST BEND      FAIR      43  32  65 W3        29.89R
JUNEAU         FAIR      35  29  79 CALM      29.91R
$$

LSZ147-162-201800-
LAKE SUPERIOR

STATION/POSITION TIME  TEMP    WIND        PRES    WAVE
                       AIR SEA DIR/SP/G            HT/PER
                 (UTC) (F)     (DEG/KT/KT) (MB)    (FT/S)
DEVILS ISLAND    1700   33     230/ 14/ 16 1011.1R
SAXON HARBOR     1630   36     190/  8/ 12 1010.5R
$$

LMZ867-665-643>646-201800-
LAKE MICHIGAN

STATION/POSITION TIME  TEMP    WIND        PRES    WAVE
                       AIR SEA DIR/SP/G            HT/PER
                 (UTC) (F)     (DEG/KT/KT) (MB)    (FT/S)
NORTHPORT PIER   1640   38     280/  5/ 11 1011.2S
KEWAUNEE LAKESHO 1642   38     300/  5/  7 1011.3R
SHEBOYGAN LAKESH 1700   41     340/  6/  7 1012.3R
PORT WASHINGTON  1640   47     280/  5/  8 1012.9S
MILWAUKEE LAKESH 1650   43     210/  4/  5   N/A
KENOSHA   LAKESH 1700   41     270/  7/  8 1013.2
$$

TC  - TEMPERATURE IN CELSIUS
VSB - VISIBILITY IN STATUTE MILES
WCI - WIND CHILL INDEX
HX  - HEAT INDEX





USA.gov is the U.S. government's official web portal to all federal, state and local government web resources and services.